Location: Dunedin
(45.8670°S, 170.5000°E)
Time: 12:10:50
(UTC+13:00)

Cosmos 2263 Rocket - Pass Details

Date: 24 January 2019
Orbit: 823 x 849 km, 71.0° (Epoch: 16 February)

Event Time Altitude Azimuth Distance (km) Brightness Sun altitude
Rises 23:18:38 0° 216° (SW) 3,413 7.2 -16.4°
Reaches altitude 10° 23:21:24 10° 227° (SW) 2,475 5.9 -16.7°
Maximum altitude 23:26:05 27° 283° (WNW) 1,565 3.8 -17.2°
Drops below altitude 10° 23:30:46 10° 339° (NNW) 2,464 4.3 -17.7°
Enters shadow 23:30:46 10° 339° (NNW) 2,465 4.3 -17.7°
